Location: Madrid
(40.4167°N, 3.7036°W)
Time: 02:54:24
(UTC+00:00)

ISS - Pass Details

Date: 24 February 2026
Orbit: 417 x 426 km, 51.6° (Epoch: 16 March)

Event Time Altitude Azimuth Distance (km) Brightness Sun altitude
Exits shadow 05:31:19 11° 341° (NNW) 1,456 -1.2 -16.9°
Maximum altitude 05:32:33 12° 4° (N) 1,358 -1.1 -16.7°
Drops below altitude 10° 05:34:04 10° 31° (NNE) 1,498 -0.5 -16.4°
Sets 05:37:11 0° 62° (ENE) 2,360 1.2 -15.8°
